Stonington Weather Center

Moon Phase Calendar



Online Cameras

 


      

Current Conditions in Stonington
6/22/2021 11:04:54 AM

65°F
Feels Like 65
Clouds
Humidity
95%
Pressure
29.62"
Wind
9 mph (S)
Dew Point
63°F
UV Index
3/10 (Moderate)
Visibility
1 mi

Hourly Forecast

Date & Time Tue, Jun 22
11:00 AM
Tue, Jun 22
12:00 PM
Tue, Jun 22
1:00 PM
Tue, Jun 22
2:00 PM
Tue, Jun 22
3:00 PM
Tue, Jun 22
4:00 PM
Tue, Jun 22
5:00 PM
Tue, Jun 22
6:00 PM
Tue, Jun 22
7:00 PM
Tue, Jun 22
8:00 PM
Tue, Jun 22
9:00 PM
Tue, Jun 22
10:00 PM
Tue, Jun 22
11:00 PM
Wed, Jun 23
12:00 AM
Wed, Jun 23
1:00 AM
Wed, Jun 23
2:00 AM
Wed, Jun 23
3:00 AM
Wed, Jun 23
4:00 AM
Wed, Jun 23
5:00 AM
Wed, Jun 23
6:00 AM
Wed, Jun 23
7:00 AM
Wed, Jun 23
8:00 AM
Wed, Jun 23
9:00 AM
Wed, Jun 23
10:00 AM
Wed, Jun 23
11:00 AM
Wed, Jun 23
12:00 PM
Wed, Jun 23
1:00 PM
Wed, Jun 23
2:00 PM
Wed, Jun 23
3:00 PM
Wed, Jun 23
4:00 PM
Wed, Jun 23
5:00 PM
Wed, Jun 23
6:00 PM
Wed, Jun 23
7:00 PM
Wed, Jun 23
8:00 PM
Wed, Jun 23
9:00 PM
Wed, Jun 23
10:00 PM
Wed, Jun 23
11:00 PM
Thu, Jun 24
12:00 AM
Thu, Jun 24
1:00 AM
Thu, Jun 24
2:00 AM
Thu, Jun 24
3:00 AM
Thu, Jun 24
4:00 AM
Thu, Jun 24
5:00 AM
Thu, Jun 24
6:00 AM
Thu, Jun 24
7:00 AM
Thu, Jun 24
8:00 AM
Thu, Jun 24
9:00 AM
Thu, Jun 24
10:00 AM
Condition
Clouds

Clouds

Clouds

Clouds

Clouds

Rain

Rain

Rain

Rain

Rain

Rain

Rain

Rain

Rain

Rain

Clouds

Clouds

Clouds

Clouds

Clouds

Clouds

Clouds

Clouds

Clouds

Clouds

Clouds

Clouds

Clouds

Clouds

Clouds

Clouds

Clouds

Clouds

Clouds

Clouds

Clouds

Clouds

Clouds

Clouds

Clouds

Clear

Clear

Clear

Clear

Clear

Clear

Clear

Clouds
Temperature 65°F64°F64°F63°F63°F62°F62°F61°F59°F57°F57°F57°F57°F56°F56°F56°F56°F56°F56°F56°F55°F57°F59°F60°F61°F62°F63°F63°F62°F63°F62°F61°F60°F59°F58°F57°F56°F56°F56°F56°F56°F56°F56°F57°F58°F59°F59°F60°F
Feels Like 65°F64°F64°F64°F63°F62°F63°F62°F59°F57°F57°F57°F56°F56°F56°F56°F56°F56°F56°F55°F55°F56°F57°F59°F60°F60°F61°F61°F61°F62°F61°F60°F59°F58°F57°F56°F55°F55°F55°F55°F55°F55°F56°F56°F57°F58°F59°F59°F
Cloudiness 100%100%100%100%100%100%97%92%94%95%100%100%100%100%100%100%99%100%100%97%98%98%100%100%97%92%77%65%23%26%19%23%29%27%63%36%24%18%15%12%0%0%0%2%2%3%8%11%
Visibility 1 mi1 mi1 mi1 mi4 mi4 mi6 mi2 mi6 mi3 mi5 mi6 mi6 mi6 mi6 mi6 mi6 mi6 mi6 mi6 mi6 mi6 mi6 mi6 mi6 mi6 mi6 mi6 mi6 mi6 mi6 mi6 mi6 mi6 mi6 mi6 mi6 mi6 mi6 mi6 mi6 mi6 mi6 mi6 mi6 mi6 mi6 mi6 mi
Precipitation 44%39%31%46%50%54%58%63%69%78%98%100%100%100%100%80%0%0%0%0%0%0%0%0%0%0%0%0%0%0%0%0%0%0%0%0%0%0%0%0%0%0%0%0%0%0%0%0%
Humidity 95%95%94%93%93%96%97%99%95%96%95%96%96%96%94%93%92%91%91%90%86%78%67%60%56%53%51%54%58%60%63%67%70%73%76%79%80%80%81%81%83%86%89%88%85%82%81%80%
Dew Point 63°F62°F62°F61°F60°F60°F61°F61°F58°F56°F56°F56°F55°F55°F54°F54°F53°F53°F53°F53°F51°F50°F47°F46°F45°F44°F44°F45°F47°F48°F49°F50°F51°F51°F51°F51°F50°F50°F50°F50°F51°F52°F53°F53°F53°F53°F53°F53°F
Pressure 29.62"29.62"29.62"29.62"29.65"29.62"29.62"29.65"29.68"29.71"29.71"29.74"29.74"29.74"29.77"29.77"29.8"29.83"29.85"29.91"29.94"29.97"30"30.03"30.03"30.06"30.09"30.09"30.12"30.12"30.15"30.15"30.18"30.21"30.27"30.27"30.3"30.33"30.33"30.33"30.36"30.36"30.36"30.39"30.39"30.42"30.42"30.45"
Wind Speed 8.7 mph9.4 mph8.9 mph8.1 mph9.1 mph6.4 mph5.4 mph10.4 mph19.8 mph20.5 mph19.1 mph15.4 mph14.4 mph13.4 mph12.3 mph13.5 mph11.7 mph10.4 mph10 mph10.8 mph12 mph12.9 mph12.9 mph12 mph9.5 mph8.4 mph7.1 mph8.2 mph10.8 mph11.7 mph13.1 mph14.3 mph13.4 mph11.9 mph9.3 mph6.2 mph4.6 mph2 mph1.9 mph3.6 mph6.2 mph7.2 mph8 mph7.6 mph9 mph10.6 mph11.8 mph12.2 mph
Wind
Direction
193°
SSW
193°
SSW
196°
SSW
194°
SSW
209°
SSW
224°
SW
224°
SW
301°
WNW
333°
NNW
332°
NNW
336°
NNW
336°
NNW
330°
NNW
330°
NNW
317°
NW
325°
NW
312°
NW
300°
WNW
292°
WNW
296°
WNW
301°
WNW
306°
NW
311°
NW
312°
NW
304°
NW
292°
WNW
271°
W
233°
SW
212°
SSW
205°
SSW
207°
SSW
211°
SSW
216°
SW
225°
SW
229°
SW
229°
SW
246°
WSW
220°
SW
158°
SSE
151°
SSE
164°
SSE
170°
S
177°
S
181°
S
181°
S
186°
S
188°
S
190°
S

Daily Forecast

Date High Low Precip. Humidity
Today
Jun 22

Rain
65 °F
57 °F
100%
95%
Wednesday
Jun 23

Rain
63 °F
55 °F
100%
53%
Thursday
Jun 24

Clouds
60 °F
56 °F
0%
79%
Friday
Jun 25

Clouds
60 °F
56 °F
0%
90%
Saturday
Jun 26

Clouds
63 °F
60 °F
0%
96%
Sunday
Jun 27

Rain
64 °F
61 °F
56%
95%
Monday
Jun 28

Rain
64 °F
60 °F
81%
91%
Tuesday
Jun 29

Rain
64 °F
60 °F
83%
92%
Wednesday
Jun 30

Rain
62 °F
59 °F
100%
100%
Thursday
Jul 1

Rain
63 °F
57 °F
38%
86%
Friday
Jul 2

Clouds
61 °F
55 °F
0%
79%
Saturday
Jul 3

Clouds
62 °F
57 °F
0%
87%
Sunday
Jul 4

Rain
64 °F
59 °F
37%
96%
Monday
Jul 5

Rain
64 °F
60 °F
72%
91%
Tuesday
Jul 6

Clear
67 °F
58 °F
0%
59%
Wednesday
Jul 7

Clouds
64 °F
58 °F
0%
71%

Temperature 8-14 Day Outlook



Precipitation 8-14 Day Outlook




Quick Links
Stonington News
Stonington Photos
Stonington Videos




About Us
Contact Us
Site Map
Search Site
Advertise With Us
   
Stonington.USCoast.info
THE STONINGTON WEBSITE

Copyright 2021, Coastal Town
Privacy    |    Legal